Location: Darlington Observatory
(36.4817°N, 105.8156°W)
Time: 22:55:30
(UTC-06:00)

NOSS 3-3 (A) - Visible Passes

Search period start: 17 April 2015 00:00
Search period end: 27 April 2015 00:00
Orbit: 955 x 1258 km, 63.4° (Epoch: 11 April)

Date Brightness Start Highest point End Pass type
(mag) Time Alt. Az. Time Alt. Az. Time Alt. Az.
17 Apr 5.5 00:24:35 10° NNW 00:29:08 39° N 00:29:08 39° N visible
17 Apr 6.7 02:16:27 10° NW 02:16:34 10° WNW 02:16:34 10° WNW visible
17 Apr 6.6 21:51:57 10° N 21:53:50 11° NNE 21:56:06 10° NE visible
17 Apr 5.4 23:40:09 10° NNW 23:45:45 39° NNE 23:45:45 39° NNE visible
18 Apr 6.2 01:31:07 10° NW 01:33:11 20° NW 01:33:11 20° NW visible
18 Apr 5.6 22:55:51 10° NNW 23:01:59 28° NE 23:02:23 28° NE visible
19 Apr 5.7 00:46:09 10° NW 00:49:50 32° NW 00:49:50 32° NW visible
19 Apr 6.0 22:11:44 10° N 22:16:45 20° NE 22:19:04 18° ENE visible
20 Apr 5.2 00:01:27 10° NNW 00:06:31 48° NNW 00:06:31 48° NNW visible
20 Apr 6.4 21:27:55 10° N 21:31:20 14° NNE 21:35:08 10° ENE visible
20 Apr 4.9 23:16:55 10° NNW 23:23:14 51° NNE 23:23:14 51° NNE visible
21 Apr 6.2 01:08:23 10° NW 01:10:41 19° WNW 01:10:41 19° WNW visible
21 Apr 5.3 22:32:32 10° NNW 22:39:11 36° NE 22:39:59 35° ENE visible
22 Apr 5.6 00:23:14 10° NW 00:27:26 34° WNW 00:27:26 34° WNW visible
22 Apr 5.8 21:48:18 10° N 21:54:04 25° NE 21:56:46 21° ENE visible
22 Apr 4.8 23:38:23 10° NW 23:44:12 58° NW 23:44:12 58° NW visible
23 Apr 6.2 21:04:16 10° N 21:08:45 17° NE 21:13:34 10° ENE visible
23 Apr 4.5 22:53:45 10° NNW 23:01:01 68° NE 23:01:01 68° NE visible
24 Apr 6.3 00:45:54 10° WNW 00:48:28 18° WNW 00:48:28 18° WNW visible
24 Apr 6.4 20:20:42 10° N 20:23:16 12° NNE 20:26:11 10° NE visible
24 Apr 4.9 22:09:17 10° NNW 22:16:19 46° NE 22:17:52 41° E visible
25 Apr 5.6 00:00:26 10° NW 00:05:20 34° W 00:05:20 34° W visible
25 Apr 5.5 21:24:57 10° NNW 21:31:18 31° NE 21:34:46 22° E visible
25 Apr 4.7 23:15:24 10° NW 23:22:13 60° W 23:22:13 60° W visible
26 Apr 5.9 20:40:47 10° N 20:46:06 22° NE 20:51:42 10° E visible
26 Apr 4.3 22:30:39 10° NNW 22:38:09 87° ENE 22:39:09 71° SE visible
